| time (UTC) | temp C | wind direction | speed KPH | gust KPH | rain 1hr cm | rain 24hr cm | rain mn cm | humidity % | barometer mb |
| 20260906214831 | 30 | 356 | 0.0 | 4.8 | 0.00 | 0.00 | 0.00 | 33 | 369.4 |
| 20260906214333 | 30 | 198 | 0.0 | 6.4 | 0.00 | 0.00 | 0.00 | 32 | 369.6 |
| 20260906214122 | 30 | 10 | 0.0 | 6.4 | 0.00 | 0.00 | 0.00 | 33 | 369.6 |
| 20260906213332 | 29 | 178 | 0.0 | 6.4 | 0.00 | 0.00 | 0.00 | 32 | 369.7 |
| 20260906212831 | 29 | 89 | 0.0 | 6.4 | 0.00 | 0.00 | 0.00 | 32 | 369.7 |
| 20260906212331 | 28 | 226 | 0.0 | 4.8 | 0.00 | 0.00 | 0.00 | 33 | 369.7 |
| 20260906211835 | 28 | 130 | 0.0 | 1.6 | 0.00 | 0.00 | 0.00 | 34 | 369.7 |
| 20260906211619 | 27 | 24 | 0.0 | 1.6 | 0.00 | 0.00 | 0.00 | 32 | 370.0 |
| 20260906211119 | 27 | 137 | 0.0 | 1.6 | 0.00 | 0.00 | 0.00 | 32 | 370.1 |
| 20260906210334 | 27 | 139 | 0.0 | 3.2 | 0.00 | 0.00 | 0.00 | 31 | 370.3 |
| 20260906205835 | 28 | 194 | 0.0 | 4.8 | 0.00 | 0.00 | 0.00 | 31 | 370.3 |
| 20260906205335 | 28 | 160 | 0.0 | 8.0 | 0.00 | 0.00 | 0.00 | 30 | 370.3 |
| 20260906204833 | 28 | 171 | 0.0 | 8.0 | 0.00 | 0.00 | 0.00 | 33 | 370.3 |
| 20260906204335 | 29 | 213 | 3.2 | 8.0 | 0.00 | 0.00 | 0.00 | 32 | 370.4 |
| 20260906203834 | 29 | 301 | 0.0 | 11.3 | 0.00 | 0.00 | 0.00 | 33 | 370.4 |
| 20260906203417 | 29 | 181 | 1.6 | 8.0 | 0.00 | 0.00 | 0.00 | 34 | 370.5 |
| 20260906203402 | 29 | 129 | 1.6 | 11.3 | 0.00 | 0.00 | 0.00 | 32 | 370.4 |
| 20260906202335 | 29 | 133 | 1.6 | 8.0 | 0.00 | 0.00 | 0.00 | 35 | 370.5 |
| 20260906201834 | 28 | 133 | 0.0 | 6.4 | 0.00 | 0.00 | 0.00 | 35 | 370.5 |
| 20260906201333 | 28 | 188 | 3.2 | 6.4 | 0.00 | 0.00 | 0.00 | 37 | 370.5 |
| 20260906200834 | 28 | 173 | 3.2 | 6.4 | 0.00 | 0.00 | 0.00 | 36 | 370.6 |
| 20260906200334 | 28 | 201 | 0.0 | 9.7 | 0.00 | 0.00 | 0.00 | 37 | 370.8 |
| 20260906200139 | 28 | 109 | 3.2 | 9.7 | 0.00 | 0.00 | 0.00 | 36 | 370.6 |
| 20260906195327 | 28 | 166 | 0.0 | 6.4 | 0.00 | 0.00 | 0.00 | 36 | 370.6 |
| 20260906194819 | 28 | 140 | 3.2 | 6.4 | 0.00 | 0.00 | 0.00 | 36 | 370.8 |
| 20260906194317 | 28 | 185 | 0.0 | 4.8 | 0.00 | 0.00 | 0.00 | 35 | 370.9 |
| 20260906193813 | 28 | 195 | 0.0 | 4.8 | 0.00 | 0.00 | 0.00 | 38 | 370.9 |
| 20260906193311 | 27 | 184 | 0.0 | 4.8 | 0.00 | 0.00 | 0.00 | 40 | 370.9 |
| 20260906192806 | 27 | 132 | 0.0 | 8.0 | 0.00 | 0.00 | 0.00 | 39 | 371.0 |
| 20260906192307 | 27 | 151 | 0.0 | 8.0 | 0.00 | 0.00 | 0.00 | 39 | 371.1 |
| 20260906191805 | 27 | 247 | 3.2 | 6.4 | 0.00 | 0.00 | 0.00 | 42 | 371.2 |
| 20260906191554 | 27 | 119 | 0.0 | 6.4 | 0.00 | 0.00 | 0.00 | 39 | 371.2 |
| 20260906190803 | 27 | 353 | 1.6 | 6.4 | 0.00 | 0.00 | 0.00 | 44 | 371.2 |
| 20260906190305 | 27 | 242 | 0.0 | 6.4 | 0.00 | 0.00 | 0.00 | 42 | 371.3 |
| 20260906185803 | 27 | 160 | 0.0 | 3.2 | 0.00 | 0.00 | 0.00 | 43 | 371.3 |
| 20260906185306 | 26 | 319 | 0.0 | 4.8 | 0.00 | 0.00 | 0.00 | 41 | 371.5 |
| 20260906184805 | 26 | 160 | 0.0 | 4.8 | 0.00 | 0.00 | 0.00 | 41 | 371.7 |
| 20260906184556 | 26 | 2 | 0.0 | 3.2 | 0.00 | 0.00 | 0.00 | 40 | 371.9 |
| 20260906183804 | 26 | 243 | 0.0 | 0.0 | 0.00 | 0.00 | 0.00 | 46 | 371.9 |
| 20260906183305 | 25 | 312 | 0.0 | 14.5 | 0.00 | 0.00 | 0.00 | 46 | 372.2 |
| 20260906182804 | 25 | 233 | 0.0 | 14.5 | 0.00 | 0.00 | 0.00 | 48 | 372.2 |
| 20260906182306 | 25 | 180 | 0.0 | 8.0 | 0.00 | 0.00 | 0.00 | 53 | 372.3 |
| 20260906181803 | 24 | 147 | 0.0 | 8.0 | 0.00 | 0.00 | 0.00 | 53 | 372.4 |
| 20260906181302 | 24 | 246 | 0.0 | 6.4 | 0.00 | 0.00 | 0.00 | 50 | 372.4 |
| 20260906180803 | 25 | 184 | 3.2 | 8.0 | 0.00 | 0.00 | 0.00 | 48 | 372.5 |
| 20260906180303 | 25 | 167 | 1.6 | 8.0 | 0.00 | 0.00 | 0.00 | 50 | 372.6 |
| 20260906175757 | 24 | 229 | 0.0 | 3.2 | 0.00 | 0.00 | 0.00 | 50 | 372.7 |
| 20260906175257 | 23 | 156 | 0.0 | 3.2 | 0.00 | 0.00 | 0.00 | 52 | 372.8 |
| 20260906175047 | 23 | 191 | 0.0 | 4.8 | 0.00 | 0.00 | 0.00 | 54 | 373.0 |
| 20260906174256 | 23 | 315 | 0.0 | 4.8 | 0.00 | 0.00 | 0.00 | 53 | 373.3 |
| 20260906174043 | 23 | 278 | 0.0 | 4.8 | 0.00 | 0.00 | 0.00 | 54 | 373.3 |
| 20260906173256 | 23 | 253 | 0.0 | 3.2 | 0.00 | 0.00 | 0.00 | 55 | 373.4 |
| 20260906172758 | 23 | 14 | 0.0 | 1.6 | 0.00 | 0.00 | 0.00 | 55 | 373.4 |
| 20260906172258 | 22 | 357 | 0.0 | 1.6 | 0.00 | 0.00 | 0.00 | 57 | 373.3 |
| 20260906171754 | 22 | 89 | 0.0 | 1.6 | 0.00 | 0.00 | 0.00 | 59 | 373.4 |
| 20260906171255 | 22 | 101 | 0.0 | 6.4 | 0.00 | 0.00 | 0.00 | 59 | 373.5 |
| 20260906171059 | 22 | 298 | 0.0 | 6.4 | 0.00 | 0.00 | 0.00 | 57 | 373.7 |
| 20260906170254 | 21 | 221 | 0.0 | 0.0 | 0.00 | 0.00 | 0.00 | 61 | 373.7 |
| 20260906170050 | 21 | 168 | 0.0 | 3.2 | 0.00 | 0.00 | 0.00 | 61 | 373.8 |
| 20260906165255 | 21 | 302 | 0.0 | 4.8 | 0.00 | 0.00 | 0.00 | 61 | 373.8 |
| 20260906164754 | 21 | 290 | 0.0 | 4.8 | 0.00 | 0.00 | 0.00 | 62 | 374.0 |
| 20260906164254 | 20 | 26 | 0.0 | 4.8 | 0.00 | 0.00 | 0.00 | 63 | 374.0 |
| 20260906163756 | 20 | 356 | 0.0 | 4.8 | 0.00 | 0.00 | 0.00 | 65 | 374.0 |
| 20260906163257 | 20 | 28 | 0.0 | 4.8 | 0.00 | 0.00 | 0.00 | 63 | 374.0 |
| 20260906162755 | 20 | 349 | 0.0 | 8.0 | 0.00 | 0.00 | 0.00 | 66 | 373.9 |
| 20260906162256 | 20 | 316 | 0.0 | 8.0 | 0.00 | 0.00 | 0.00 | 65 | 373.8 |
| 20260906161751 | 20 | 335 | 0.0 | 1.6 | 0.00 | 0.00 | 0.00 | 66 | 373.8 |
| 20260906161248 | 19 | 160 | 0.0 | 4.8 | 0.00 | 0.00 | 0.00 | 67 | 373.8 |
| 20260906160741 | 19 | 9 | 1.6 | 4.8 | 0.00 | 0.00 | 0.00 | 66 | 373.8 |
| 20260906160234 | 19 | 319 | 0.0 | 3.2 | 0.00 | 0.00 | 0.00 | 67 | 373.9 |
| 20260906155733 | 19 | 24 | 0.0 | 3.2 | 0.00 | 0.00 | 0.00 | 69 | 373.9 |
| 20260906155235 | 18 | 37 | 0.0 | 3.2 | 0.00 | 0.00 | 0.00 | 69 | 374.0 |
| 20260906154734 | 18 | 20 | 0.0 | 3.2 | 0.00 | 0.00 | 0.00 | 70 | 374.0 |
| 20260906154231 | 18 | 10 | 0.0 | 6.4 | 0.00 | 0.00 | 0.00 | 72 | 374.0 |
| 20260906153731 | 17 | 3 | 0.0 | 6.4 | 0.00 | 0.00 | 0.00 | 74 | 374.0 |
| 20260906153231 | 17 | 16 | 0.0 | 3.2 | 0.00 | 0.00 | 0.00 | 74 | 373.9 |
| 20260906152732 | 17 | 7 | 0.0 | 6.4 | 0.00 | 0.00 | 0.00 | 75 | 374.0 |
| 20260906152235 | 16 | 23 | 3.2 | 6.4 | 0.00 | 0.00 | 0.00 | 76 | 374.1 |
| 20260906151733 | 16 | 16 | 0.0 | 6.4 | 0.00 | 0.00 | 0.00 | 77 | 374.1 |
| 20260906151524 | 16 | 356 | 1.6 | 6.4 | 0.00 | 0.00 | 0.00 | 77 | 374.1 |
| 20260906150735 | 16 | 14 | 0.0 | 3.2 | 0.00 | 0.00 | 0.00 | 78 | 374.1 |
| 20260906150234 | 15 | 30 | 0.0 | 6.4 | 0.00 | 0.00 | 0.00 | 79 | 374.1 |
| 20260906145734 | 15 | 7 | 1.6 | 6.4 | 0.00 | 0.00 | 0.00 | 79 | 374.1 |
| 20260906145234 | 15 | 43 | 1.6 | 4.8 | 0.00 | 0.00 | 0.00 | 79 | 374.1 |
| 20260906144734 | 15 | 41 | 0.0 | 8.0 | 0.00 | 0.00 | 0.00 | 79 | 374.2 |
| 20260906144227 | 15 | 28 | 3.2 | 8.0 | 0.00 | 0.00 | 0.00 | 79 | 374.3 |
| 20260906144018 | 15 | 18 | 0.0 | 4.8 | 0.00 | 0.00 | 0.00 | 81 | 374.2 |
| 20260906143225 | 15 | 30 | 0.0 | 6.4 | 0.00 | 0.00 | 0.00 | 83 | 374.1 |
| 20260906142725 | 15 | 14 | 1.6 | 6.4 | 0.00 | 0.00 | 0.00 | 83 | 374.1 |
| 20260906142220 | 15 | 27 | 0.0 | 8.0 | 0.00 | 0.00 | 0.00 | 84 | 374.1 |
| 20260906141720 | 14 | 33 | 3.2 | 8.0 | 0.00 | 0.00 | 0.00 | 85 | 374.2 |
| 20260906141211 | 14 | 3 | 0.0 | 3.2 | 0.00 | 0.00 | 0.00 | 86 | 374.1 |
| 20260906140717 | 13 | 349 | 0.0 | 3.2 | 0.00 | 0.00 | 0.00 | 86 | 374.2 |
| 20260906140205 | 13 | 30 | 0.0 | 1.6 | 0.00 | 0.00 | 0.00 | 86 | 374.1 |
| 20260906135704 | 13 | 9 | 0.0 | 1.6 | 0.00 | 0.00 | 0.00 | 87 | 374.1 |
| 20260906135456 | 13 | 6 | 0.0 | 1.6 | 0.00 | 0.00 | 0.00 | 87 | 374.1 |
| 20260906134707 | 12 | 33 | 0.0 | 1.6 | 0.00 | 0.00 | 0.00 | 87 | 374.1 |
| 20260906134204 | 12 | 14 | 0.0 | 0.0 | 0.00 | 0.00 | 0.00 | 87 | 374.1 |
| 20260906133705 | 12 | 14 | 0.0 | 0.0 | 0.00 | 0.00 | 0.00 | 86 | 374.2 |
| 20260906133205 | 12 | 14 | 0.0 | 0.0 | 0.00 | 0.00 | 0.00 | 85 | 374.1 |
| 20260906132952 | 12 | 14 | 0.0 | 0.0 | 0.00 | 0.00 | 0.00 | 86 | 374.1 |
| 20260906132205 | 12 | 14 | 0.0 | 0.0 | 0.00 | 0.00 | 0.00 | 85 | 374.0 |
| 20260906131707 | 12 | 14 | 0.0 | 0.0 | 0.00 | 0.00 | 0.00 | 85 | 374.1 |
| 20260906131453 | 12 | 9 | 0.0 | 0.0 | 0.00 | 0.00 | 0.00 | 85 | 374.1 |
| 20260906130706 | 12 | 7 | 0.0 | 1.6 | 0.00 | 0.00 | 0.00 | 85 | 374.0 |
| 20260906130204 | 12 | 33 | 0.0 | 3.2 | 0.00 | 0.00 | 0.00 | 85 | 373.9 |
| 20260906125703 | 12 | 18 | 0.0 | 3.2 | 0.00 | 0.00 | 0.00 | 86 | 373.8 |
| 20260906125205 | 11 | 28 | 0.0 | 0.0 | 0.00 | 0.00 | 0.00 | 85 | 373.8 |
| 20260906124703 | 11 | 11 | 0.0 | 0.0 | 0.00 | 0.00 | 0.00 | 85 | 373.8 |
| 20260906124204 | 11 | 34 | 0.0 | 0.0 | 0.00 | 0.00 | 0.00 | 85 | 373.8 |
| 20260906123703 | 11 | 33 | 0.0 | 0.0 | 0.00 | 0.00 | 0.00 | 84 | 373.8 |
| 20260906123202 | 11 | 33 | 0.0 | 0.0 | 0.00 | 0.00 | 0.00 | 83 | 373.8 |
| 20260906122703 | 11 | 33 | 0.0 | 0.0 | 0.00 | 0.00 | 0.00 | 83 | 373.7 |
| 20260906122453 | 11 | 33 | 0.0 | 0.0 | 0.00 | 0.00 | 0.00 | 82 | 373.5 |
| 20260906121703 | 11 | 41 | 0.0 | 0.0 | 0.00 | 0.00 | 0.00 | 82 | 373.7 |
| 20260906121201 | 11 | 41 | 0.0 | 0.0 | 0.00 | 0.00 | 0.00 | 81 | 373.5 |
| 20260906120656 | 11 | 41 | 0.0 | 0.0 | 0.00 | 0.00 | 0.00 | 81 | 373.5 |
| 20260906120152 | 11 | 41 | 0.0 | 0.0 | 0.00 | 0.00 | 0.00 | 80 | 373.5 |
| 20260906115649 | 11 | 41 | 0.0 | 0.0 | 0.00 | 0.00 | 0.00 | 80 | 373.5 |
| 20260906115148 | 11 | 41 | 0.0 | 0.0 | 0.00 | 0.00 | 0.00 | 80 | 373.5 |
| 20260906114936 | 11 | 41 | 0.0 | 0.0 | 0.00 | 0.00 | 0.00 | 79 | 373.5 |
| 20260906114147 | 11 | 41 | 0.0 | 0.0 | 0.00 | 0.00 | 0.00 | 79 | 373.7 |
| 20260906113938 | 12 | 41 | 0.0 | 0.0 | 0.00 | 0.00 | 0.00 | 79 | 373.7 |
| 20260906113148 | 12 | 44 | 0.0 | 0.0 | 0.00 | 0.00 | 0.00 | 79 | 373.5 |
| 20260906112652 | 12 | 46 | 0.0 | 0.0 | 0.00 | 0.00 | 0.00 | 80 | 373.5 |
| 20260906112432 | 12 | 46 | 0.0 | 0.0 | 0.00 | 0.00 | 0.00 | 80 | 373.5 |
| 20260906111640 | 12 | 46 | 0.0 | 0.0 | 0.00 | 0.00 | 0.00 | 80 | 373.4 |
| 20260906111137 | 11 | 46 | 0.0 | 0.0 | 0.00 | 0.00 | 0.00 | 80 | 373.3 |
| 20260906110635 | 11 | 46 | 0.0 | 0.0 | 0.00 | 0.00 | 0.00 | 80 | 373.4 |
| 20260906110443 | 12 | 46 | 0.0 | 0.0 | 0.00 | 0.00 | 0.00 | 80 | 373.4 |
| 20260906105634 | 12 | 46 | 0.0 | 0.0 | 0.00 | 0.00 | 0.00 | 80 | 373.4 |
| 20260906105134 | 12 | 46 | 0.0 | 0.0 | 0.00 | 0.00 | 0.00 | 80 | 373.3 |
| 20260906104633 | 12 | 46 | 0.0 | 0.0 | 0.00 | 0.00 | 0.00 | 80 | 373.4 |
| 20260906104135 | 12 | 46 | 0.0 | 0.0 | 0.00 | 0.00 | 0.00 | 78 | 373.4 |
| 20260906103635 | 12 | 46 | 0.0 | 0.0 | 0.00 | 0.00 | 0.00 | 79 | 373.4 |
| 20260906103135 | 12 | 46 | 0.0 | 0.0 | 0.00 | 0.00 | 0.00 | 79 | 373.3 |
| 20260906102626 | 12 | 46 | 0.0 | 0.0 | 0.00 | 0.00 | 0.00 | 78 | 373.3 |
| 20260906102118 | 12 | 46 | 0.0 | 0.0 | 0.00 | 0.00 | 0.00 | 77 | 373.3 |
| 20260906101618 | 12 | 46 | 0.0 | 0.0 | 0.00 | 0.00 | 0.00 | 77 | 373.4 |
| 20260906101115 | 13 | 46 | 0.0 | 0.0 | 0.00 | 0.00 | 0.00 | 76 | 373.2 |
| 20260906100610 | 13 | 46 | 0.0 | 0.0 | 0.00 | 0.00 | 0.00 | 76 | 373.3 |
| 20260906100114 | 13 | 46 | 0.0 | 0.0 | 0.00 | 0.00 | 0.00 | 76 | 373.3 |
| 20260906095610 | 13 | 46 | 0.0 | 0.0 | 0.00 | 0.00 | 0.00 | 76 | 373.3 |
| 20260906095108 | 13 | 46 | 0.0 | 0.0 | 0.00 | 0.00 | 0.00 | 76 | 373.4 |
| 20260906094605 | 13 | 46 | 0.0 | 0.0 | 0.00 | 0.00 | 0.00 | 75 | 373.3 |
| 20260906094103 | 13 | 46 | 0.0 | 0.0 | 0.00 | 0.00 | 0.00 | 73 | 373.4 |
| 20260906093603 | 13 | 46 | 0.0 | 0.0 | 0.00 | 0.00 | 0.00 | 73 | 373.3 |
| 20260906093103 | 13 | 46 | 0.0 | 0.0 | 0.00 | 0.00 | 0.00 | 73 | 373.2 |
| 20260906092603 | 13 | 46 | 0.0 | 0.0 | 0.00 | 0.00 | 0.00 | 73 | 373.1 |
| 20260906092056 | 13 | 46 | 0.0 | 0.0 | 0.00 | 0.00 | 0.00 | 73 | 373.1 |
| 20260906091840 | 13 | 46 | 0.0 | 0.0 | 0.00 | 0.00 | 0.00 | 73 | 373.1 |
| 20260906091336 | 13 | 46 | 0.0 | 3.2 | 0.00 | 0.00 | 0.00 | 72 | 372.8 |
| 20260906090544 | 13 | 46 | 0.0 | 4.8 | 0.00 | 0.00 | 0.00 | 72 | 372.7 |
| 20260906090045 | 14 | 7 | 0.0 | 4.8 | 0.00 | 0.00 | 0.00 | 72 | 372.5 |
| 20260906085544 | 14 | 10 | 0.0 | 4.8 | 0.00 | 0.00 | 0.00 | 71 | 372.4 |
| 20260906085336 | 15 | 7 | 0.0 | 1.6 | 0.00 | 0.00 | 0.00 | 70 | 372.6 |
| 20260906084544 | 15 | 11 | 0.0 | 1.6 | 0.00 | 0.00 | 0.00 | 70 | 372.5 |
| 20260906084044 | 15 | 14 | 0.0 | 0.0 | 0.00 | 0.00 | 0.00 | 68 | 372.6 |
| 20260906083629 | 15 | 27 | 0.0 | 3.2 | 0.00 | 0.00 | 0.00 | 66 | 372.6 |
| 20260906083615 | 15 | 14 | 0.0 | 0.0 | 0.00 | 0.00 | 0.00 | 68 | 372.6 |
| 20260906082544 | 16 | 17 | 0.0 | 3.2 | 0.00 | 0.00 | 0.00 | 66 | 372.6 |
| 20260906082043 | 16 | 10 | 0.0 | 6.4 | 0.00 | 0.00 | 0.00 | 65 | 372.6 |
| 20260906081545 | 16 | 44 | 0.0 | 6.4 | 0.00 | 0.00 | 0.00 | 64 | 372.6 |
| 20260906081046 | 16 | 3 | 1.6 | 8.0 | 0.00 | 0.00 | 0.00 | 64 | 372.6 |
| 20260906080545 | 16 | 28 | 1.6 | 9.7 | 0.00 | 0.00 | 0.00 | 64 | 372.6 |
| 20260906080053 | 16 | 30 | 0.0 | 9.7 | 0.00 | 0.00 | 0.00 | 64 | 372.6 |
| 20260906075543 | 16 | 40 | 0.0 | 8.0 | 0.00 | 0.00 | 0.00 | 63 | 372.6 |
| 20260906075042 | 16 | 20 | 3.2 | 9.7 | 0.00 | 0.00 | 0.00 | 61 | 372.6 |
| 20260906074543 | 16 | 18 | 6.4 | 9.7 | 0.00 | 0.00 | 0.00 | 60 | 372.5 |
| 20260906074043 | 16 | 20 | 4.8 | 8.0 | 0.00 | 0.00 | 0.00 | 59 | 372.5 |
| 20260906073543 | 15 | 4 | 3.2 | 8.0 | 0.00 | 0.00 | 0.00 | 59 | 372.6 |
| 20260906073041 | 15 | 33 | 1.6 | 6.4 | 0.00 | 0.00 | 0.00 | 60 | 372.6 |
| 20260906072545 | 15 | 36 | 0.0 | 0.0 | 0.00 | 0.00 | 0.00 | 60 | 372.6 |
| 20260906072034 | 15 | 14 | 0.0 | 0.0 | 0.00 | 0.00 | 0.00 | 60 | 372.6 |
| 20260906071822 | 15 | 13 | 0.0 | 3.2 | 0.00 | 0.00 | 0.00 | 59 | 372.6 |
| 20260906071036 | 16 | 7 | 0.0 | 4.8 | 0.00 | 0.00 | 0.00 | 58 | 372.7 |
| 20260906070536 | 16 | 2 | 1.6 | 4.8 | 0.00 | 0.00 | 0.00 | 54 | 372.7 |
| 20260906070035 | -17 | 0.0 | 0.0 | 0.00 | 0.00 | 0.00 | 372.6 | ||
| 20260906065531 | -17 | 0.0 | 0.0 | 0.00 | 0.00 | 0.00 | 372.6 | ||
| 20260906065030 | -17 | 0.0 | 0.0 | 0.00 | 0.00 | 0.00 | 372.5 | ||
| 20260906064524 | -17 | 0.0 | 0.0 | 0.00 | 0.00 | 0.00 | 372.6 | ||
| 20260906064016 | -17 | 0.0 | 0.0 | 0.00 | 0.00 | 0.00 | 372.5 | ||
| 20260906063802 | -17 | 0.0 | 0.0 | 0.00 | 0.00 | 0.00 | |||
| 20260906063233 | 15 | 356 | 6.4 | 9.7 | 0.00 | 0.00 | 0.00 | 59 | 372.5 |
| 20260906062735 | 15 | 356 | 6.4 | 9.7 | 0.00 | 0.00 | 0.00 | 59 | 372.5 |
| 20260906062235 | 16 | 21 | 4.8 | 8.0 | 0.00 | 0.00 | 0.00 | 58 | 372.4 |
| 20260906061735 | 16 | 13 | 3.2 | 6.4 | 0.00 | 0.00 | 0.00 | 57 | 372.6 |
| 20260906061235 | 16 | 39 | 3.2 | 6.4 | 0.00 | 0.00 | 0.00 | 56 | 372.7 |
| 20260906060735 | 16 | 33 | 0.0 | 3.2 | 0.00 | 0.00 | 0.00 | 59 | 372.7 |
| 20260906060315 | 16 | 235 | 0.0 | 0.0 | 0.00 | 0.00 | 0.00 | 59 | 372.7 |
| 20260906060302 | 16 | 254 | 0.0 | 0.0 | 0.00 | 0.00 | 0.00 | 58 | 372.8 |
| 20260906055235 | 16 | 235 | 0.0 | 0.0 | 0.00 | 0.00 | 0.00 | 58 | 372.6 |
| 20260906054731 | 17 | 235 | 0.0 | 0.0 | 0.00 | 0.00 | 0.00 | 54 | 372.7 |
| 20260906054232 | 17 | 225 | 0.0 | 0.0 | 0.00 | 0.00 | 0.00 | 51 | 372.7 |
| 20260906053731 | 17 | 225 | 0.0 | 0.0 | 0.00 | 0.00 | 0.00 | 50 | 372.8 |
| 20260906053228 | 17 | 225 | 0.0 | 0.0 | 0.00 | 0.00 | 0.00 | 51 | 373.0 |
| 20260906052729 | 18 | 225 | 0.0 | 0.0 | 0.00 | 0.00 | 0.00 | 52 | 372.8 |
| 20260906052259 | 18 | 232 | 0.0 | 0.0 | 0.00 | 0.00 | 0.00 | 52 | 372.6 |
| 20260906052248 | 18 | 232 | 0.0 | 0.0 | 0.00 | 0.00 | 0.00 | 51 | 372.7 |
| 20260906051210 | 18 | 232 | 0.0 | 0.0 | 0.00 | 0.00 | 0.00 | 46 | 372.7 |
| 20260906050705 | 18 | 232 | 0.0 | 0.0 | 0.00 | 0.00 | 0.00 | 47 | 372.6 |
| 20260906050202 | 18 | 232 | 0.0 | 0.0 | 0.00 | 0.00 | 0.00 | 45 | 372.6 |
| 20260906045703 | 18 | 232 | 0.0 | 3.2 | 0.00 | 0.00 | 0.00 | 45 | 372.6 |
| 20260906045202 | 18 | 232 | 0.0 | 9.7 | 0.00 | 0.00 | 0.00 | 46 | 372.7 |
| 20260906044706 | 18 | 221 | 6.4 | 9.7 | 0.00 | 0.00 | 0.00 | 46 | 372.7 |
| 20260906044205 | 18 | 284 | 4.8 | 8.0 | 0.00 | 0.00 | 0.00 | 47 | 372.5 |
| 20260906043706 | 18 | 142 | 0.0 | 4.8 | 0.00 | 0.00 | 0.00 | 47 | 372.6 |
| 20260906043206 | 18 | 184 | 0.0 | 0.0 | 0.00 | 0.00 | 0.00 | 47 | 372.3 |
| 20260906042704 | 18 | 346 | 0.0 | 0.0 | 0.00 | 0.00 | 0.00 | 48 | 371.9 |
| 20260906042203 | 19 | 4 | 0.0 | 0.0 | 0.00 | 0.00 | 0.00 | 43 | 371.8 |
| 20260906041703 | 20 | 18 | 0.0 | 0.0 | 0.00 | 0.00 | 0.00 | 43 | 371.8 |
| 20260906041203 | 20 | 20 | 0.0 | 3.2 | 0.00 | 0.00 | 0.00 | 39 | 371.8 |
| 20260906040953 | 20 | 14 | 0.0 | 4.8 | 0.00 | 0.00 | 0.00 | 39 | 371.7 |
| 20260906040203 | 20 | 16 | 0.0 | 4.8 | 0.00 | 0.00 | 0.00 | 39 | 371.5 |
| 20260906035952 | 21 | 89 | 0.0 | 6.4 | 0.00 | 0.00 | 0.00 | 39 | 371.2 |
| 20260906035454 | 21 | 20 | 0.0 | 6.4 | 0.00 | 0.00 | 0.00 | 37 | 371.2 |
| 20260906034702 | 21 | 20 | 0.0 | 9.7 | 0.00 | 0.00 | 0.00 | 37 | 371.3 |
| 20260906034454 | 21 | 16 | 1.6 | 9.7 | 0.00 | 0.00 | 0.00 | 37 | 371.3 |
| 20260906033702 | 21 | 33 | 1.6 | 6.4 | 0.00 | 0.00 | 0.00 | 37 | 371.3 |
| 20260906033451 | 21 | 20 | 0.0 | 8.0 | 0.00 | 0.00 | 0.00 | 38 | 371.3 |
| 20260906032704 | 20 | 39 | 0.0 | 8.0 | 0.00 | 0.00 | 0.00 | 39 | 371.3 |
| 20260906032457 | 20 | 235 | 0.0 | 4.8 | 0.00 | 0.00 | 0.00 | 40 | 371.3 |
| 20260906031703 | 20 | 36 | 0.0 | 9.7 | 0.00 | 0.00 | 0.00 | 40 | 371.2 |
| 20260906031202 | 20 | 357 | 3.2 | 9.7 | 0.00 | 0.00 | 0.00 | 39 | 371.2 |
| 20260906030702 | 20 | 28 | 0.0 | 4.8 | 0.00 | 0.00 | 0.00 | 39 | 371.1 |
| 20260906030202 | 20 | 34 | 1.6 | 4.8 | 0.00 | 0.00 | 0.00 | 39 | 371.0 |
| 20260906025704 | 21 | 16 | 0.0 | 4.8 | 0.00 | 0.00 | 0.00 | 41 | 370.9 |
| 20260906025203 | 21 | 39 | 0.0 | 9.7 | 0.00 | 0.00 | 0.00 | 38 | 370.9 |
| 20260906024703 | 21 | 4 | 6.4 | 9.7 | 0.00 | 0.00 | 0.00 | 39 | 370.8 |
| 20260906024203 | 20 | 36 | 3.2 | 9.7 | 0.00 | 0.00 | 0.00 | 41 | 370.8 |
| 20260906023704 | 20 | 27 | 1.6 | 4.8 | 0.00 | 0.00 | 0.00 | 42 | 370.9 |
| 20260906023451 | 20 | 10 | 0.0 | 0.0 | 0.00 | 0.00 | 0.00 | 43 | 370.9 |
| 20260906022945 | 20 | 10 | 0.0 | 0.0 | 0.00 | 0.00 | 0.00 | 42 | 370.9 |
| 20260906022152 | 20 | 10 | 0.0 | 0.0 | 0.00 | 0.00 | 0.00 | 42 | 370.8 |
| 20260906021650 | 20 | 6 | 0.0 | 0.0 | 0.00 | 0.00 | 0.00 | 44 | 370.9 |
| 20260906021144 | 20 | 6 | 0.0 | 0.0 | 0.00 | 0.00 | 0.00 | 42 | 370.6 |
| 20260906020634 | 20 | 332 | 0.0 | 0.0 | 0.00 | 0.00 | 0.00 | 43 | 370.6 |
| 20260906020135 | 21 | 333 | 0.0 | 6.4 | 0.00 | 0.00 | 0.00 | 40 | 370.6 |
| 20260906015630 | 21 | 27 | 1.6 | 6.4 | 0.00 | 0.00 | 0.00 | 38 | 370.5 |
| 20260906015131 | 21 | 37 | 0.0 | 4.8 | 0.00 | 0.00 | 0.00 | 37 | 370.4 |
| 20260906014632 | 21 | 16 | 0.0 | 6.4 | 0.00 | 0.00 | 0.00 | 37 | 370.3 |
| 20260906014132 | 22 | 24 | 3.2 | 6.4 | 0.00 | 0.00 | 0.00 | 36 | 370.2 |
| 20260906013631 | 22 | 31 | 0.0 | 1.6 | 0.00 | 0.00 | 0.00 | 35 | 370.2 |
| 20260906013132 | 22 | 26 | 0.0 | 1.6 | 0.00 | 0.00 | 0.00 | 35 | 370.2 |
| 20260906012632 | 23 | 40 | 0.0 | 4.8 | 0.00 | 0.00 | 0.00 | 34 | 370.3 |
| 20260906012134 | 23 | 2 | 0.0 | 8.0 | 0.00 | 0.00 | 0.00 | 33 | 370.2 |
| 20260906011632 | 23 | 6 | 3.2 | 11.3 | 0.00 | 0.00 | 0.00 | 32 | 370.3 |
| 20260906011131 | 24 | 53 | 4.8 | 14.5 | 0.00 | 0.00 | 0.00 | 31 | 370.2 |
| 20260906010631 | 25 | 349 | 9.7 | 16.1 | 0.00 | 0.00 | 0.00 | 31 | 370.1 |
| 20260906010132 | 25 | 325 | 8.0 | 19.3 | 0.00 | 0.00 | 0.00 | 29 | 370.2 |
| 20260906005632 | 25 | 2 | 11.3 | 19.3 | 0.00 | 0.00 | 0.00 | 30 | 370.2 |
| 20260906005421 | 25 | 339 | 11.3 | 16.1 | 0.00 | 0.00 | 0.00 | 30 | 370.3 |
| 20260906004920 | 25 | 339 | 11.3 | 16.1 | 0.00 | 0.00 | 0.00 | 31 | 370.2 |
| 20260906004132 | 25 | 343 | 8.0 | 11.3 | 0.00 | 0.00 | 0.00 | 30 | 370.3 |
| 20260906003631 | 25 | 2 | 6.4 | 11.3 | 0.00 | 0.00 | 0.00 | 30 | 370.4 |
| 20260906003136 | 26 | 339 | 6.4 | 11.3 | 0.00 | 0.00 | 0.00 | 30 | 370.3 |
| 20260906002634 | 26 | 335 | 8.0 | 14.5 | 0.00 | 0.00 | 0.00 | 28 | 370.3 |
| 20260906002134 | 26 | 335 | 6.4 | 14.5 | 0.00 | 0.00 | 0.00 | 30 | 370.2 |
| 20260906001923 | 26 | 339 | 6.4 | 11.3 | 0.00 | 0.00 | 0.00 | 28 | 370.2 |
| 20260906001144 | 26 | 342 | 6.4 | 11.3 | 0.00 | 0.00 | 0.00 | 29 | 370.3 |
| 20260906000634 | 26 | 343 | 8.0 | 11.3 | 0.00 | 0.00 | 0.00 | 29 | 370.2 |
| 20260906000134 | 26 | 336 | 4.8 | 9.7 | 0.00 | 0.00 | 0.00 | 33 | 370.2 |
| 20260905235935 | 26 | 349 | 0.0 | 0.0 | 0.00 | 0.00 | 0.00 | 32 | 370.1 |
| 20260905235132 | 26 | 357 | 0.0 | 1.6 | 0.00 | 0.00 | 0.00 | 29 | 370.1 |
| 20260905234631 | 26 | 338 | 0.0 | 1.6 | 0.00 | 0.00 | 0.00 | 30 | 370.0 |
| 20260905234132 | 26 | 345 | 0.0 | 6.4 | 0.00 | 0.00 | 0.00 | 30 | 370.0 |
| 20260905233632 | 27 | 359 | 0.0 | 6.4 | 0.00 | 0.00 | 0.00 | 29 | 370.0 |
| 20260905233132 | 27 | 353 | 0.0 | 6.4 | 0.00 | 0.00 | 0.00 | 29 | 370.0 |
| 20260905232632 | 27 | 352 | 0.0 | 6.4 | 0.00 | 0.00 | 0.00 | 28 | 370.0 |
| 20260905232422 | 28 | 343 | 1.6 | 4.8 | 0.00 | 0.00 | 0.00 | 26 | 370.0 |
| 20260905231633 | 28 | 349 | 0.0 | 6.4 | 0.00 | 0.00 | 0.00 | 24 | 369.8 |
| 20260905231515 | 30 | 0 | 1.6 | 8.0 | 0.00 | 0.00 | 0.00 | 21 | 369.8 |
| 20260905231501 | 29 | 0 | 3.2 | 8.0 | 0.00 | 0.00 | 0.00 | 24 | 369.8 |
| 20260905230131 | 31 | 350 | 0.0 | 3.2 | 0.00 | 0.00 | 0.00 | 21 | 369.7 |
| 20260905225631 | 31 | 352 | 1.6 | 3.2 | 0.00 | 0.00 | 0.00 | 20 | 369.7 |
| 20260905225133 | 31 | 30 | 0.0 | 6.4 | 0.00 | 0.00 | 0.00 | 21 | 369.6 |
| 20260905224634 | 31 | 359 | 0.0 | 6.4 | 0.00 | 0.00 | 0.00 | 20 | 369.7 |
| 20260905224135 | 31 | 177 | 0.0 | 1.6 | 0.00 | 0.00 | 0.00 | 19 | 369.6 |
| 20260905223634 | 31 | 164 | 0.0 | 9.7 | 0.00 | 0.00 | 0.00 | 19 | 369.7 |
| 20260905223131 | 31 | 28 | 0.0 | 9.7 | 0.00 | 0.00 | 0.00 | 20 | 369.7 |
| 20260905222631 | 31 | 321 | 0.0 | 11.3 | 0.00 | 0.00 | 0.00 | 19 | 369.7 |
| 20260905222130 | 31 | 14 | 3.2 | 11.3 | 0.00 | 0.00 | 0.00 | 20 | 369.7 |
| 20260905221631 | 31 | 323 | 0.0 | 6.4 | 0.00 | 0.00 | 0.00 | 20 | 369.7 |
| 20260905221213 | 30 | 322 | 6.4 | 8.0 | 0.00 | 0.00 | 0.00 | 21 | 369.8 |
| 20260905221153 | 30 | 240 | 0.0 | 8.0 | 0.00 | 0.00 | 0.00 | 21 | 369.7 |
| 20260905220123 | 30 | 347 | 0.0 | 6.4 | 0.00 | 0.00 | 0.00 | 19 | 369.8 |
| 20260905215624 | 31 | 18 | 0.0 | 8.0 | 0.00 | 0.00 | 0.00 | 21 | 370.0 |
| 20260905215124 | 31 | 40 | 1.6 | 8.0 | 0.00 | 0.00 | 0.00 | 18 | 370.0 |